,,,PA_Meas_PMT16A,,PR_Meas_QMR101_102,,RH_Meas_QMH101,,SR_Meas_QMS101,,TA_Meas_QMH101,,GenWind,,GenWind,
date,time,status,PA,status,PR,status,RH,status,SR,status,TA,status,DirAvg,status,SpdAvg,
2011-04-13, 00:00:04,VALID,1005.13,VALID,0,VALID,93.0571,VALID,0,VALID,26.0206,VALID,352,VALID,0.782031,
2011-04-13, 00:01:04,VALID,1005.13,VALID,0,VALID,92.9579,VALID,0,VALID,26.0206,VALID,351,VALID,0.514844,
2011-04-13, 00:02:04,VALID,1005.11,VALID,0,VALID,92.9808,VALID,0,VALID,26.0206,VALID,352,VALID,0.533594,
2011-04-13, 00:03:04,VALID,1005.1,VALID,0,VALID,92.9655,VALID,0,VALID,26.0187,VALID,357,VALID,0.458203,
2011-04-13, 00:04:04,VALID,1005.11,VALID,0,VALID,92.5536,VALID,0,VALID,26.0206,VALID,317,VALID,0.591406,
2011-04-13, 00:05:04,VALID,1005.08,VALID,0,VALID,92.5231,VALID,0,VALID,26.0401,VALID,336,VALID,0.471484,
2011-04-13, 00:06:04,VALID,1005.1,VALID,0,VALID,92.3018,VALID,0,VALID,26.0616,VALID,337,VALID,0.434375,
2011-04-13, 00:07:04,VALID,1005.13,VALID,0,VALID,92.1798,VALID,0,VALID,26.0596,VALID,326,VALID,0.970703,
2011-04-13, 00:08:04,VALID,1005.11,VALID,0,VALID,92.1798,VALID,0,VALID,26.0985,VALID,338,VALID,0.386719,
2011-04-13, 00:09:04,VALID,1005.11,VALID,0,VALID,91.867,VALID,0,VALID,26.12,VALID,337,VALID,0.924219,
2011-04-13, 00:10:04,VALID,1005.09,VALID,0,VALID,91.7983,VALID,0,VALID,26.118,VALID,345,VALID,0.417188,
2011-04-13, 00:11:04,VALID,1005.11,VALID,0,VALID,92.0501,VALID,0,VALID,26.118,VALID,338,VALID,0.278516,
2011-04-13, 00:12:04,VALID,1005.06,VALID,0,VALID,91.9814,VALID,0,VALID,26.1375,VALID,351,VALID,0.854297,
2011-04-13, 00:13:04,VALID,1005.06,VALID,0,VALID,92.1035,VALID,0,VALID,26.1375,VALID,345,VALID,0.628125,
2011-04-13, 00:14:04,VALID,1005.04,VALID,0,VALID,91.8975,VALID,0,VALID,26.118,VALID,355,VALID,0.630078,
2011-04-13, 00:15:04,VALID,1005.06,VALID,0,VALID,91.8822,VALID,0,VALID,26.1375,VALID,342,VALID,0.601953,
2011-04-13, 00:16:04,VALID,1005.03,VALID,0,VALID,91.9662,VALID,0,VALID,26.157,VALID,350,VALID,0.323047,
2011-04-13, 00:17:04,VALID,1005.02,VALID,0,VALID,91.8899,VALID,0,VALID,26.1375,VALID,356,VALID,0.773438,
2011-04-13, 00:18:04,VALID,1005,VALID,0,VALID,92.0272,VALID,0,VALID,26.1375,VALID,353,VALID,0.860937,
2011-04-13, 00:19:04,VALID,1005.02,VALID,0,VALID,92.0424,VALID,0,VALID,26.116,VALID,352,VALID,0.639063,
2011-04-13, 00:20:04,VALID,1005.03,VALID,0,VALID,92.0653,VALID,0,VALID,26.159,VALID,342,VALID,0.528906,
2011-04-13, 00:21:04,VALID,1005.04,VALID,0,VALID,91.9433,VALID,0,VALID,26.1355,VALID,353,VALID,0.598437,
2011-04-13, 00:22:04,VALID,1005.03,VALID,0,VALID,92.3018,VALID,0,VALID,26.155,VALID,351,VALID,0.365234,
2011-04-13, 00:23:04,VALID,1005.02,VALID,0,VALID,92.3095,VALID,0,VALID,26.116,VALID,318,VALID,0.423828,
2011-04-13, 00:24:04,VALID,1004.99,VALID,0,VALID,92.1264,VALID,0,VALID,26.0966,VALID,351,VALID,0.575,
2011-04-13, 00:25:04,VALID,1005,VALID,0,VALID,92.0958,VALID,0,VALID,26.1375,VALID,348,VALID,0.673828,
2011-04-13, 00:26:04,VALID,1005,VALID,0,VALID,92.401,VALID,0,VALID,26.116,VALID,324,VALID,0.6125,
2011-04-13, 00:27:04,VALID,1005.01,VALID,0,VALID,92.1645,VALID,0,VALID,26.116,VALID,357,VALID,0.798437,
2011-04-13, 00:28:04,VALID,1004.98,VALID,0,VALID,92.0119,VALID,0,VALID,26.1355,VALID,352,VALID,0.663672,
2011-04-13, 00:29:04,VALID,1004.98,VALID,0,VALID,91.8059,VALID,0,VALID,26.155,VALID,335,VALID,0.646484,
2011-04-13, 00:30:04,VALID,1004.97,VALID,0,VALID,91.7907,VALID,0,VALID,26.1745,VALID,348,VALID,0.825,
2011-04-13, 00:31:04,VALID,1004.96,VALID,0,VALID,91.8212,VALID,0.100563,VALID,26.153,VALID,356,VALID,0.578125,
2011-04-13, 00:32:04,VALID,1004.94,VALID,0,VALID,91.7907,VALID,0.100563,VALID,26.1745,VALID,354,VALID,0.760156,
2011-04-13, 00:33:04,VALID,1004.98,VALID,0,VALID,91.6991,VALID,0,VALID,26.194,VALID,334,VALID,0.265234,
2011-04-13, 00:34:04,VALID,1004.95,VALID,0,VALID,91.7449,VALID,0,VALID,26.2349,VALID,351,VALID,0.516797,
2011-04-13, 00:35:04,VALID,1004.96,VALID,0,VALID,91.6381,VALID,0.100563,VALID,26.2329,VALID,341,VALID,0.615625,
2011-04-13, 00:36:04,VALID,1004.95,VALID,0,VALID,91.4932,VALID,0,VALID,26.2524,VALID,354,VALID,0.499219,
2011-04-13, 00:37:04,VALID,1004.93,VALID,0,VALID,91.6305,VALID,0.100563,VALID,26.2329,VALID,1,VALID,0.461328,
2011-04-13, 00:38:04,VALID,1004.93,VALID,0,VALID,91.4016,VALID,0,VALID,26.2329,VALID,343,VALID,0.7625,
2011-04-13, 00:39:04,VALID,1004.92,VALID,0,VALID,91.8288,VALID,0,VALID,26.2329,VALID,280,VALID,0.402344,
2011-04-13, 00:40:04,VALID,1004.91,VALID,0,VALID,91.4398,VALID,0,VALID,26.2544,VALID,355,VALID,0.753906,
2011-04-13, 00:41:04,VALID,1004.9,VALID,0,VALID,91.4016,VALID,0.100563,VALID,26.2309,VALID,342,VALID,0.440625,
2011-04-13, 00:42:04,VALID,1004.89,VALID,0,VALID,91.6305,VALID,0.100563,VALID,26.2504,VALID,340,VALID,0.04375,
2011-04-13, 00:43:04,VALID,1004.87,VALID,0,VALID,91.2033,VALID,0,VALID,26.2309,VALID,323,VALID,0.507813,
2011-04-13, 00:44:04,VALID,1004.88,VALID,0,VALID,91.2948,VALID,0,VALID,26.2544,VALID,309,VALID,0.43125,
2011-04-13, 00:45:04,VALID,1004.86,VALID,0,VALID,91.3482,VALID,0,VALID,26.2759,VALID,318,VALID,0.230859,
2011-04-13, 00:46:04,VALID,1004.85,VALID,0,VALID,91.7297,VALID,0,VALID,26.2134,VALID,325,VALID,0.138672,
2011-04-13, 00:47:04,VALID,1004.84,VALID,0,VALID,91.3253,VALID,0,VALID,26.2349,VALID,341,VALID,0.5875,
2011-04-13, 00:48:04,VALID,1004.78,VALID,0,VALID,91.6229,VALID,0,VALID,26.2134,VALID,352,VALID,0.417969,
2011-04-13, 00:49:04,VALID,1004.76,VALID,0,VALID,92.0043,VALID,0,VALID,26.1959,VALID,354,VALID,0.25625,
2011-04-13, 00:50:04,VALID,1004.77,VALID,0,VALID,92.0043,VALID,0,VALID,26.1959,VALID,354,VALID,0.196484,
2011-04-13, 00:51:04,VALID,1004.75,VALID,0,VALID,92.2179,VALID,0,VALID,26.157,VALID,2,VALID,0.313281,
2011-04-13, 00:52:04,VALID,1004.74,VALID,0,VALID,92.3018,VALID,0,VALID,26.159,VALID,347,VALID,0.210938,
2011-04-13, 00:53:04,VALID,1004.71,VALID,0,VALID,92.5383,VALID,0,VALID,26.1375,VALID,353,VALID,0.312109,
2011-04-13, 00:54:04,VALID,1004.69,VALID,0,VALID,92.1264,VALID,0,VALID,26.118,VALID,334,VALID,1.35039,
2011-04-13, 00:55:04,VALID,1004.66,VALID,0,VALID,91.9433,VALID,0,VALID,26.1375,VALID,354,VALID,0.61875,
2011-04-13, 00:56:04,VALID,1004.66,VALID,0,VALID,91.7602,VALID,0,VALID,26.1765,VALID,347,VALID,0.821484,
2011-04-13, 00:57:04,VALID,1004.63,VALID,0,VALID,91.8136,VALID,0,VALID,26.155,VALID,353,VALID,0.513672,
2011-04-13, 00:58:04,VALID,1004.56,VALID,0,VALID,91.9204,VALID,0,VALID,26.157,VALID,3,VALID,0.537891,
2011-04-13, 00:59:04,VALID,1004.57,VALID,0,VALID,91.928,VALID,0,VALID,26.157,VALID,343,VALID,0.938672,
2011-04-13, 01:00:04,VALID,1004.57,VALID,0,VALID,91.8822,VALID,0,VALID,26.157,VALID,356,VALID,1.06172,
2011-04-13, 01:01:04,VALID,1004.56,VALID,0,VALID,91.8899,VALID,0,VALID,26.155,VALID,354,VALID,1.04727,
2011-04-13, 01:02:04,VALID,1004.55,VALID,0,VALID,91.9128,VALID,0,VALID,26.157,VALID,356,VALID,0.432813,
2011-04-13, 01:03:04,VALID,1004.52,VALID,0,VALID,91.9585,VALID,0,VALID,26.1355,VALID,348,VALID,0.881641,
2011-04-13, 01:04:04,VALID,1004.52,VALID,0,VALID,92.4086,VALID,0,VALID,26.157,VALID,348,VALID,0.28125,
2011-04-13, 01:05:04,VALID,1004.51,VALID,0,VALID,92.2713,VALID,0,VALID,26.1784,VALID,350,VALID,0.931641,
2011-04-13, 01:06:04,VALID,1004.5,VALID,0,VALID,92.2637,VALID,0,VALID,26.118,VALID,299,VALID,0.510938,
2011-04-13, 01:07:04,VALID,1004.5,VALID,0,VALID,92.5765,VALID,0,VALID,26.0966,VALID,290,VALID,0.386328,
2011-04-13, 01:08:04,VALID,1004.42,VALID,0,VALID,92.6604,VALID,0,VALID,26.118,VALID,343,VALID,0.420312,
2011-04-13, 01:09:04,VALID,1004.41,VALID,0,VALID,92.5307,VALID,0,VALID,26.0985,VALID,348,VALID,0.889844,
2011-04-13, 01:10:04,VALID,1004.37,VALID,0,VALID,92.7748,VALID,0,VALID,26.0771,VALID,356,VALID,0.341797,
2011-04-13, 01:11:04,VALID,1004.37,VALID,0,VALID,92.6909,VALID,0,VALID,26.0596,VALID,356,VALID,0.983203,
2011-04-13, 01:12:04,VALID,1004.32,VALID,0,VALID,92.5688,VALID,0,VALID,26.0985,VALID,343,VALID,0.445313,
2011-04-13, 01:13:04,VALID,1004.28,VALID,0,VALID,92.546,VALID,0,VALID,26.0791,VALID,332,VALID,0.817578,
2011-04-13, 01:14:04,VALID,1004.25,VALID,0,VALID,92.607,VALID,0,VALID,26.0985,VALID,357,VALID,0.844141,
2011-04-13, 01:15:04,VALID,1004.23,VALID,0,VALID,92.7901,VALID,0.100563,VALID,26.116,VALID,348,VALID,0.742188,
2011-04-13, 01:16:04,VALID,1004.22,VALID,0,VALID,92.8816,VALID,0.100563,VALID,26.116,VALID,1,VALID,0.537109,
2011-04-13, 01:17:04,VALID,1004.22,VALID,0,VALID,92.9655,VALID,0.100563,VALID,26.0966,VALID,358,VALID,0.512891,
2011-04-13, 01:18:04,VALID,1004.18,VALID,0,VALID,92.9274,VALID,0.100563,VALID,26.0966,VALID,4,VALID,0.607813,
2011-04-13, 01:19:04,VALID,1004.17,VALID,0,VALID,93.1486,VALID,0.100563,VALID,26.0751,VALID,348,VALID,0.817969,
2011-04-13, 01:20:04,VALID,1004.16,VALID,0,VALID,92.9426,VALID,0.100563,VALID,26.0966,VALID,339,VALID,0.575391,
2011-04-13, 01:21:04,VALID,1004.14,VALID,0,VALID,93.0418,VALID,0,VALID,26.116,VALID,353,VALID,0.516016,
2011-04-13, 01:22:04,VALID,1004.13,VALID,0,VALID,92.9274,VALID,0.100563,VALID,26.116,VALID,335,VALID,0.734766,
2011-04-13, 01:23:04,VALID,1004.1,VALID,0,VALID,92.9045,VALID,0.100563,VALID,26.157,VALID,349,VALID,1.06797,
2011-04-13, 01:24:04,VALID,1004.05,VALID,0,VALID,93.0952,VALID,0.100563,VALID,26.155,VALID,353,VALID,0.855859,
2011-04-13, 01:25:04,VALID,1004.05,VALID,0,VALID,93.1105,VALID,0,VALID,26.1745,VALID,342,VALID,0.551562,
2011-04-13, 01:26:04,VALID,1004.01,VALID,0,VALID,93.1181,VALID,0.100563,VALID,26.153,VALID,330,VALID,0.975,
2011-04-13, 01:27:04,VALID,1003.98,VALID,0,VALID,92.9579,VALID,0.100563,VALID,26.194,VALID,324,VALID,1.04141,
2011-04-13, 01:28:04,VALID,1003.95,VALID,0,VALID,92.7138,VALID,0.100563,VALID,26.192,VALID,346,VALID,0.876172,
2011-04-13, 01:29:04,VALID,1003.9,VALID,0,VALID,92.7214,VALID,0,VALID,26.2349,VALID,342,VALID,0.740625,
2011-04-13, 01:30:04,VALID,1003.87,VALID,0,VALID,92.6222,VALID,0,VALID,26.2349,VALID,351,VALID,1.22578,
2011-04-13, 01:31:04,VALID,1003.83,VALID,0,VALID,92.5078,VALID,0,VALID,26.2544,VALID,350,VALID,1.01875,
2011-04-13, 01:32:04,VALID,1003.8,VALID,0,VALID,92.5383,VALID,0,VALID,26.2544,VALID,327,VALID,0.578906,
2011-04-13, 01:33:04,VALID,1003.78,VALID,0,VALID,92.3323,VALID,0,VALID,26.2544,VALID,356,VALID,1.37344,
2011-04-13, 01:34:04,VALID,1003.75,VALID,0,VALID,92.1874,VALID,0,VALID,26.2933,VALID,328,VALID,0.651563,
2011-04-13, 01:35:04,VALID,1003.71,VALID,0,VALID,92.1035,VALID,0,VALID,26.3128,VALID,347,VALID,1.03437,
2011-04-13, 01:36:04,VALID,1003.71,VALID,0,VALID,92.1035,VALID,0,VALID,26.2913,VALID,353,VALID,1.21289,
2011-04-13, 01:37:04,VALID,1003.72,VALID,0,VALID,91.9738,VALID,0,VALID,26.3128,VALID,4,VALID,1.23633,
2011-04-13, 01:38:04,VALID,1003.69,VALID,0,VALID,92.0043,VALID,0,VALID,26.3128,VALID,343,VALID,1.08047,
2011-04-13, 01:39:04,VALID,1003.64,VALID,0,VALID,92.0348,VALID,0,VALID,26.3128,VALID,352,VALID,0.906641,
2011-04-13, 01:40:04,VALID,1003.63,VALID,0,VALID,91.8212,VALID,0,VALID,26.3323,VALID,358,VALID,1.00586,
2011-04-13, 01:41:04,VALID,1003.64,VALID,0,VALID,91.9356,VALID,0,VALID,26.3108,VALID,4,VALID,0.713281,
2011-04-13, 01:42:05,VALID,1003.61,VALID,0,VALID,91.8136,VALID,0,VALID,26.3128,VALID,357,VALID,0.598437,
2011-04-13, 01:43:05,VALID,1003.62,VALID,0,VALID,92.0501,VALID,0,VALID,26.3128,VALID,317,VALID,0.740234,
2011-04-13, 01:44:05,VALID,1003.61,VALID,0,VALID,92.1264,VALID,0,VALID,26.3128,VALID,3,VALID,0.910937,
2011-04-13, 01:45:05,VALID,1003.62,VALID,0,VALID,92.0501,VALID,0,VALID,26.3128,VALID,327,VALID,0.465625,
2011-04-13, 01:46:05,VALID,1003.56,VALID,0,VALID,92.0958,VALID,0,VALID,26.2933,VALID,336,VALID,1.14805,
2011-04-13, 01:47:05,VALID,1003.55,VALID,0,VALID,92.1416,VALID,0,VALID,26.2739,VALID,350,VALID,1.21719,
2011-04-13, 01:48:05,VALID,1003.54,VALID,0,VALID,92.1264,VALID,0,VALID,26.2739,VALID,352,VALID,1.55,
2011-04-13, 01:49:05,VALID,1003.51,VALID,0,VALID,92.0577,VALID,0,VALID,26.2933,VALID,355,VALID,1.02734,
2011-04-13, 01:50:05,VALID,1003.5,VALID,0,VALID,92.1721,VALID,0,VALID,26.2544,VALID,337,VALID,0.855859,
2011-04-13, 01:51:05,VALID,1003.5,VALID,0,VALID,92.2713,VALID,0,VALID,26.2329,VALID,1,VALID,0.775781,
2011-04-13, 01:52:05,VALID,1003.48,VALID,0,VALID,92.3629,VALID,0,VALID,26.2134,VALID,356,VALID,0.802344,
2011-04-13, 01:53:05,VALID,1003.5,VALID,0,VALID,92.1645,VALID,0,VALID,26.2349,VALID,348,VALID,1.18359,
2011-04-13, 01:54:05,VALID,1003.49,VALID,0,VALID,92.1874,VALID,0,VALID,26.2349,VALID,342,VALID,1.16406,
2011-04-13, 01:55:05,VALID,1003.48,VALID,0,VALID,92.1416,VALID,0,VALID,26.2154,VALID,355,VALID,1.25391,
2011-04-13, 01:56:05,VALID,1003.49,VALID,0,VALID,92.0882,VALID,0,VALID,26.2154,VALID,354,VALID,1.33359,
2011-04-13, 01:57:05,VALID,1003.49,VALID,0,VALID,92.1416,VALID,0,VALID,26.2154,VALID,354,VALID,1.04219,
2011-04-13, 01:58:05,VALID,1003.47,VALID,0,VALID,92.0348,VALID,0,VALID,26.2154,VALID,351,VALID,0.919141,
2011-04-13, 01:59:05,VALID,1003.43,VALID,0,VALID,91.7907,VALID,0,VALID,26.1745,VALID,314,VALID,1.15977,
2011-04-13, 02:00:05,VALID,1003.4,VALID,0,VALID,91.8822,VALID,0,VALID,26.1959,VALID,350,VALID,0.958984,
2011-04-13, 02:01:05,VALID,1003.38,VALID,0,VALID,91.8594,VALID,0,VALID,26.1959,VALID,357,VALID,1.45117,
2011-04-13, 02:02:05,VALID,1003.38,VALID,0,VALID,91.867,VALID,0,VALID,26.1765,VALID,352,VALID,1.11328,
2011-04-13, 02:03:05,VALID,1003.36,VALID,0,VALID,91.8136,VALID,0,VALID,26.1765,VALID,355,VALID,1.30078,
2011-04-13, 02:04:05,VALID,1003.37,VALID,0,VALID,91.8136,VALID,0,VALID,26.1355,VALID,357,VALID,1.56445,
2011-04-13, 02:05:05,VALID,1003.34,VALID,0,VALID,91.9204,VALID,0,VALID,26.1355,VALID,350,VALID,1.59141,
2011-04-13, 02:06:05,VALID,1003.29,VALID,0,VALID,91.9814,VALID,0,VALID,26.116,VALID,1,VALID,1.18086,
2011-04-13, 02:07:05,VALID,1003.3,VALID,0,VALID,91.8822,VALID,0,VALID,26.118,VALID,351,VALID,1.30859,
2011-04-13, 02:08:05,VALID,1003.26,VALID,0,VALID,92.0196,VALID,0,VALID,26.0985,VALID,349,VALID,0.933203,
2011-04-13, 02:09:05,VALID,1003.24,VALID,0,VALID,92.195,VALID,0,VALID,26.0985,VALID,1,VALID,0.915234,
2011-04-13, 02:10:05,VALID,1003.23,VALID,0,VALID,92.1874,VALID,0,VALID,26.0576,VALID,352,VALID,1.16445,
2011-04-13, 02:11:05,VALID,1003.23,VALID,0,VALID,92.1874,VALID,0,VALID,26.0381,VALID,342,VALID,1.46211,
2011-04-13, 02:12:05,VALID,1003.24,VALID,0,VALID,92.2484,VALID,0,VALID,26.0596,VALID,345,VALID,0.856641,
2011-04-13, 02:13:05,VALID,1003.23,VALID,0,VALID,92.3018,VALID,0,VALID,26.0381,VALID,351,VALID,0.79375,
2011-04-13, 02:14:05,VALID,1003.24,VALID,0,VALID,92.2866,VALID,0,VALID,26.0187,VALID,351,VALID,1.30078,
2011-04-13, 02:15:05,VALID,1003.24,VALID,0,VALID,92.2713,VALID,0,VALID,26.0401,VALID,352,VALID,1.09609,
2011-04-13, 02:16:05,VALID,1003.25,VALID,0,VALID,92.2179,VALID,0,VALID,26.0187,VALID,350,VALID,1.29297,
2011-04-13, 02:17:05,VALID,1003.24,VALID,0,VALID,92.0043,VALID,0,VALID,26.0187,VALID,344,VALID,1.28594,
2011-04-13, 02:18:05,VALID,1003.21,VALID,0,VALID,91.9509,VALID,0,VALID,26.0596,VALID,354,VALID,1.18047,
2011-04-13, 02:19:05,VALID,1003.21,VALID,0,VALID,91.9128,VALID,0,VALID,26.0596,VALID,349,VALID,1.17422,
2011-04-13, 02:20:05,VALID,1003.19,VALID,0,VALID,92.0958,VALID,0,VALID,26.0401,VALID,337,VALID,0.613672,
2011-04-13, 02:21:05,VALID,1003.2,VALID,0,VALID,92.1264,VALID,0,VALID,26.0206,VALID,330,VALID,0.869922,
2011-04-13, 02:22:05,VALID,1003.19,VALID,0,VALID,92.0196,VALID,0,VALID,26.0206,VALID,12,VALID,0.892187,
2011-04-13, 02:23:05,VALID,1003.17,VALID,0,VALID,92.0424,VALID,0,VALID,26.0401,VALID,359,VALID,1.2543,
2011-04-13, 02:24:05,VALID,1003.19,VALID,0,VALID,91.7983,VALID,0,VALID,26.0187,VALID,352,VALID,1.29336,
2011-04-13, 02:25:05,VALID,1003.15,VALID,0,VALID,91.6076,VALID,0,VALID,26.0596,VALID,353,VALID,1.96992,
2011-04-13, 02:26:05,VALID,1003.15,VALID,0,VALID,91.6381,VALID,0,VALID,26.0187,VALID,340,VALID,1.07422,
2011-04-13, 02:27:05,VALID,1003.15,VALID,0,VALID,91.6457,VALID,0,VALID,26.0381,VALID,335,VALID,1.22109,
2011-04-13, 02:28:05,VALID,1003.14,VALID,0,VALID,91.8365,VALID,0,VALID,26.0401,VALID,345,VALID,0.908203,
2011-04-13, 02:29:05,VALID,1003.13,VALID,0,VALID,91.7144,VALID,0,VALID,25.9992,VALID,352,VALID,1.14063,
2011-04-13, 02:30:05,VALID,1003.17,VALID,0,VALID,91.7602,VALID,0,VALID,25.9992,VALID,351,VALID,1.8375,
2011-04-13, 02:31:05,VALID,1003.14,VALID,0,VALID,91.9509,VALID,0,VALID,26.0012,VALID,2,VALID,0.664453,
2011-04-13, 02:32:05,VALID,1003.13,VALID,0,VALID,91.7373,VALID,0,VALID,25.9797,VALID,341,VALID,1.7293,
2011-04-13, 02:33:05,VALID,1003.13,VALID,0,VALID,91.6229,VALID,0,VALID,26.0206,VALID,351,VALID,1.67656,
2011-04-13, 02:34:05,VALID,1003.14,VALID,0,VALID,91.8822,VALID,0,VALID,26.0401,VALID,1,VALID,1.13242,
2011-04-13, 02:35:05,VALID,1003.12,VALID,0,VALID,91.6152,VALID,0,VALID,26.0187,VALID,348,VALID,1.50391,
2011-04-13, 02:36:05,VALID,1003.16,VALID,0,VALID,91.5008,VALID,0,VALID,26.0381,VALID,331,VALID,0.806641,
2011-04-13, 02:37:05,VALID,1003.15,VALID,0,VALID,91.3635,VALID,0,VALID,26.0791,VALID,356,VALID,1.41055,
2011-04-13, 02:38:05,VALID,1003.14,VALID,0,VALID,91.3406,VALID,0,VALID,26.0362,VALID,326,VALID,0.989062,
2011-04-13, 02:39:05,VALID,1003.19,VALID,0,VALID,91.5466,VALID,0,VALID,26.0771,VALID,356,VALID,1.06172,
2011-04-13, 02:40:05,VALID,1003.22,VALID,0,VALID,91.1575,VALID,0,VALID,26.0771,VALID,349,VALID,1.13203,
2011-04-13, 02:41:05,VALID,1003.21,VALID,0,VALID,91.1804,VALID,0,VALID,26.118,VALID,4,VALID,1.01367,
2011-04-13, 02:42:05,VALID,1003.23,VALID,0,VALID,91.127,VALID,0,VALID,26.0966,VALID,351,VALID,1.99414,
2011-04-13, 02:43:05,VALID,1003.21,VALID,0,VALID,91.2796,VALID,0,VALID,26.0771,VALID,356,VALID,0.862109,
2011-04-13, 02:44:05,VALID,1003.24,VALID,0,VALID,91.333,VALID,0,VALID,26.0966,VALID,343,VALID,1.47187,
2011-04-13, 02:45:05,VALID,1003.22,VALID,0,VALID,91.455,VALID,0,VALID,26.0985,VALID,305,VALID,0.622266,
2011-04-13, 02:46:05,VALID,1003.23,VALID,0,VALID,91.3482,VALID,0,VALID,26.0576,VALID,354,VALID,1.28125,
2011-04-13, 02:47:05,VALID,1003.26,VALID,0,VALID,91.3482,VALID,0,VALID,26.0791,VALID,315,VALID,0.667969,
2011-04-13, 02:48:05,VALID,1003.25,VALID,0,VALID,91.2185,VALID,0,VALID,26.0362,VALID,349,VALID,1.39219,
2011-04-13, 02:49:05,VALID,1003.24,VALID,0,VALID,91.3635,VALID,0,VALID,26.0771,VALID,349,VALID,0.775,
2011-04-13, 02:50:05,VALID,1003.29,VALID,0,VALID,91.4398,VALID,0,VALID,26.0771,VALID,331,VALID,0.738281,
2011-04-13, 02:51:05,VALID,1003.26,VALID,0,VALID,91.2643,VALID,0,VALID,26.0985,VALID,351,VALID,0.7875,
2011-04-13, 02:52:05,VALID,1003.27,VALID,0,VALID,91.2643,VALID,0,VALID,26.118,VALID,353,VALID,0.772656,
2011-04-13, 02:53:05,VALID,1003.3,VALID,0,VALID,91.394,VALID,0,VALID,26.0966,VALID,331,VALID,0.568359,
2011-04-13, 02:54:05,VALID,1003.33,VALID,0,VALID,91.2948,VALID,0,VALID,26.0985,VALID,349,VALID,0.655859,
2011-04-13, 02:55:05,VALID,1003.37,VALID,0,VALID,91.3253,VALID,0,VALID,26.0771,VALID,346,VALID,0.936328,
2011-04-13, 02:56:05,VALID,1003.4,VALID,0,VALID,91.3787,VALID,0,VALID,26.0791,VALID,348,VALID,1.11484,
2011-04-13, 02:57:05,VALID,1003.39,VALID,0,VALID,91.6991,VALID,0,VALID,26.0791,VALID,357,VALID,0.8875,
2011-04-13, 02:58:05,VALID,1003.44,VALID,0,VALID,91.3711,VALID,0,VALID,26.0791,VALID,353,VALID,0.896875,
2011-04-13, 02:59:05,VALID,1003.39,VALID,0,VALID,91.7068,VALID,0,VALID,26.0596,VALID,360,VALID,0.887109,
2011-04-13, 03:00:05,VALID,1003.42,VALID,0,VALID,91.7144,VALID,0,VALID,26.0596,VALID,328,VALID,0.444531,
2011-04-13, 03:01:05,VALID,1003.41,VALID,0,VALID,91.5389,VALID,0,VALID,26.0771,VALID,340,VALID,0.462109,
2011-04-13, 03:02:05,VALID,1003.38,VALID,0,VALID,91.3101,VALID,0,VALID,26.118,VALID,4,VALID,0.682031,
2011-04-13, 03:03:05,VALID,1003.39,VALID,0,VALID,91.2185,VALID,0,VALID,26.118,VALID,334,VALID,0.806641,
2011-04-13, 03:04:05,VALID,1003.41,VALID,0,VALID,91.5542,VALID,0,VALID,26.116,VALID,8,VALID,0.324609,
2011-04-13, 03:05:05,VALID,1003.38,VALID,0,VALID,91.4016,VALID,0,VALID,26.0966,VALID,3,VALID,0.591016,
2011-04-13, 03:06:05,VALID,1003.44,VALID,0,VALID,91.2262,VALID,0,VALID,26.118,VALID,320,VALID,0.660937,
2011-04-13, 03:07:05,VALID,1003.46,VALID,0,VALID,91.4169,VALID,0,VALID,26.116,VALID,332,VALID,0.522656,
2011-04-13, 03:08:05,VALID,1003.45,VALID,0,VALID,91.3558,VALID,0,VALID,26.1375,VALID,303,VALID,0.507031,
2011-04-13, 03:09:05,VALID,1003.49,VALID,0,VALID,91.2643,VALID,0,VALID,26.1375,VALID,331,VALID,0.242969,
2011-04-13, 03:10:05,VALID,1003.5,VALID,0,VALID,91.3177,VALID,0,VALID,26.0966,VALID,4,VALID,0.676953,
2011-04-13, 03:11:05,VALID,1003.53,VALID,0,VALID,91.4703,VALID,0,VALID,26.116,VALID,329,VALID,0.477344,
2011-04-13, 03:12:05,VALID,1003.54,VALID,0,VALID,91.3558,VALID,0,VALID,26.118,VALID,334,VALID,0.576172,
2011-04-13, 03:13:05,VALID,1003.54,VALID,0,VALID,91.4245,VALID,0,VALID,26.1375,VALID,348,VALID,0.684375,
2011-04-13, 03:14:05,VALID,1003.55,VALID,0,VALID,91.4626,VALID,0,VALID,26.1375,VALID,347,VALID,0.619141,
2011-04-13, 03:15:05,VALID,1003.56,VALID,0,VALID,91.4398,VALID,0,VALID,26.1375,VALID,347,VALID,0.545703,
2011-04-13, 03:16:05,VALID,1003.56,VALID,0,VALID,91.5237,VALID,0,VALID,26.1375,VALID,320,VALID,0.599609,
2011-04-13, 03:17:05,VALID,1003.51,VALID,0,VALID,91.5618,VALID,0,VALID,26.1375,VALID,350,VALID,0.740234,
2011-04-13, 03:18:05,VALID,1003.49,VALID,0,VALID,91.4398,VALID,0,VALID,26.1765,VALID,353,VALID,1.66758,
2011-04-13, 03:19:05,VALID,1003.48,VALID,0,VALID,91.3101,VALID,0,VALID,26.2349,VALID,359,VALID,0.391016,
2011-04-13, 03:20:05,VALID,1003.47,VALID,0,VALID,91.3177,VALID,0,VALID,26.2134,VALID,345,VALID,0.349609,
2011-04-13, 03:21:05,VALID,1003.49,VALID,0,VALID,91.2033,VALID,0,VALID,26.2329,VALID,308,VALID,0.689062,
2011-04-13, 03:22:05,VALID,1003.49,VALID,0,VALID,91.0583,VALID,0,VALID,26.2544,VALID,8,VALID,0.625781,
2011-04-13, 03:23:05,VALID,1003.46,VALID,0,VALID,90.9744,VALID,0,VALID,26.2739,VALID,311,VALID,0.966016,
2011-04-13, 03:24:05,VALID,1003.44,VALID,0,VALID,91.1041,VALID,0,VALID,26.2739,VALID,305,VALID,0.465625,
2011-04-13, 03:25:05,VALID,1003.47,VALID,0,VALID,90.776,VALID,0,VALID,26.2524,VALID,349,VALID,1.02031,
2011-04-13, 03:26:05,VALID,1003.46,VALID,0,VALID,90.8295,VALID,0,VALID,26.2933,VALID,353,VALID,1.58984,
2011-04-13, 03:27:05,VALID,1003.46,VALID,0,VALID,90.7684,VALID,0,VALID,26.3128,VALID,355,VALID,0.419141,
2011-04-13, 03:28:05,VALID,1003.45,VALID,0,VALID,90.86,VALID,0,VALID,26.3128,VALID,357,VALID,0.678516,
2011-04-13, 03:29:05,VALID,1003.48,VALID,0,VALID,91.1346,VALID,0,VALID,26.2913,VALID,233,VALID,0.153516,
2011-04-13, 03:30:05,VALID,1003.45,VALID,0,VALID,91.3253,VALID,0,VALID,26.2933,VALID,1,VALID,0.501953,
2011-04-13, 03:31:05,VALID,1003.46,VALID,0,VALID,91.2719,VALID,0,VALID,26.2739,VALID,352,VALID,0.679688,
2011-04-13, 03:32:05,VALID,1003.49,VALID,0,VALID,91.1804,VALID,0,VALID,26.2544,VALID,343,VALID,1.10273,
2011-04-13, 03:33:05,VALID,1003.51,VALID,0,VALID,91.0659,VALID,0,VALID,26.2739,VALID,334,VALID,0.770703,
2011-04-13, 03:34:05,VALID,1003.55,VALID,0,VALID,91.0354,VALID,0,VALID,26.2739,VALID,4,VALID,0.479688,
2011-04-13, 03:35:05,VALID,1003.57,VALID,0,VALID,91.1193,VALID,0,VALID,26.2933,VALID,8,VALID,0.666016,
2011-04-13, 03:36:05,VALID,1003.59,VALID,0,VALID,91.0354,VALID,0,VALID,26.2524,VALID,340,VALID,0.323828,
2011-04-13, 03:37:05,VALID,1003.64,VALID,0,VALID,91.0965,VALID,0,VALID,26.2524,VALID,340,VALID,0.701953,
2011-04-13, 03:38:05,VALID,1003.67,VALID,0,VALID,91.0431,VALID,0,VALID,26.2933,VALID,353,VALID,0.766797,
2011-04-13, 03:39:05,VALID,1003.65,VALID,0,VALID,91.0888,VALID,0,VALID,26.2524,VALID,1,VALID,1.06562,
2011-04-13, 03:40:05,VALID,1003.66,VALID,0,VALID,91.2643,VALID,0,VALID,26.2739,VALID,344,VALID,0.835547,
2011-04-13, 03:41:05,VALID,1003.64,VALID,0,VALID,91.0659,VALID,0,VALID,26.2524,VALID,343,VALID,0.90625,
2011-04-13, 03:42:05,VALID,1003.67,VALID,0,VALID,90.9286,VALID,0,VALID,26.2933,VALID,354,VALID,0.888672,
2011-04-13, 03:43:05,VALID,1003.66,VALID,0,VALID,91.2109,VALID,0,VALID,26.2933,VALID,353,VALID,0.210938,
2011-04-13, 03:44:05,VALID,1003.65,VALID,0,VALID,91.0736,VALID,0,VALID,26.2719,VALID,295,VALID,0.529688,